Waarnemingen

Advertentie
Mijn weer
Barth, Duitsland (10180): temperatuur & dauwpunt: 20.03.2017 00:00:00 - 26.03.2017 00:00:00 (CET)Barth, Duitsland (10180): temperatuur 5cm & temperatuur -5cm: 20.03.2017 00:00:00 - 26.03.2017 00:00:00 (CET)Barth, Duitsland (10180): temperatuur -20cm & temperatuur -100cm: 20.03.2017 00:00:00 - 26.03.2017 00:00:00 (CET)Barth, Duitsland (10180): windsnelheid & windstoten: 20.03.2017 00:00:00 - 26.03.2017 00:00:00 (CET)Barth, Duitsland (10180): windrichting: 20.03.2017 00:00:00 - 26.03.2017 00:00:00 (CET)Barth, Duitsland (10180): luchtdruk: 20.03.2017 00:00:00 - 26.03.2017 00:00:00 (CET)Barth, Duitsland (10180): zicht: 20.03.2017 00:00:00 - 26.03.2017 00:00:00 (CET)Barth, Duitsland (10180): Zonneschijnduur: 20.03.2017 00:00:00 - 26.03.2017 00:00:00 (CET)Barth, Duitsland (10180): neerslag: 20.03.2017 00:00:00 - 26.03.2017 00:00:00 (CET)
Datum & Tijd tt [°C] td [°C] tt 5cm [°C] tt -5cm [°C] tt -20cm [°C] tt -100cm [°C] ff [km/u] ff [kn] fx [km/u] fx [kn] dd ppp [hPa] vv [km] sd [min] rr [mm]
26.03.2017 00:00:00 -0,8 -1,2 -4,0 1,9 5,8 5,9 4 2 8 4 ZW 1026,1 4,2 0 0,0
25.03.2017 23:00:00 0,8 0,4 -2,8 2,6 6,1 5,9 1 1 8 4 NNO 1025,9 22 0 0,0
25.03.2017 22:00:00 3,3 2,5 -1,5 3,4 6,5 5,9 4 2 9 5 NW 1025,7 37 0 0,0
25.03.2017 21:00:00 3,2 2,4 -1,3 4,5 6,8 5,9 6 3 10 5 W 1025,3 27 0 0,0
25.03.2017 20:00:00 4,7 3,5 1,5 5,7 7,1 5,9 5 3 16 9 W 1025,4 33 0 0,0
25.03.2017 19:00:00 5,7 4,0 4,5 6,7 7,2 5,9 11 6 17 9 W 1025,8 31 0 0,0
25.03.2017 18:00:00 7,3 4,2 6,6 8,0 7,2 5,9 13 7 26 14 W 1025,8 37 1 0,0
25.03.2017 17:00:00 8,2 4,5 8,3 9,0 7,1 5,9 18 10 29 15 W 1025,9 - 20 0,0
25.03.2017 16:00:00 8,6 4,5 9,7 10,0 6,8 5,9 19 11 31 17 W 1026,8 - 59 0,0
25.03.2017 15:00:00 8,9 5,2 10,9 10,3 6,4 5,9 22 12 33 18 W 1027,4 - 44 0,0
25.03.2017 14:00:00 8,4 5,0 10,4 9,7 5,9 5,9 21 12 34 18 W 1027,7 - 38 0,0
25.03.2017 13:00:00 7,7 4,6 9,8 8,9 5,5 5,9 22 12 33 18 W 1028,5 - 4 0,0
25.03.2017 12:00:00 7,1 4,1 8,8 8,4 5,2 5,9 21 11 32 17 WNW 1028,7 - 9 0,0
25.03.2017 11:00:00 6,7 3,8 8,0 7,0 4,9 5,9 19 11 32 18 WNW 1029,3 - 0 0,0
25.03.2017 10:00:00 5,5 3,3 6,0 5,7 4,6 5,9 22 12 40 22 WNW 1029,5 25 1 0,0
25.03.2017 09:00:00 5,9 3,4 6,8 5,3 4,5 5,9 20 11 32 17 W 1029,0 - 41 0,0
25.03.2017 08:00:00 5,1 3,3 5,3 3,7 4,5 5,9 18 10 29 16 W 1029,3 - 9 0,0
25.03.2017 07:00:00 4,1 2,8 3,3 2,7 4,6 5,9 16 9 27 15 W 1029,5 30 0 0,0
25.03.2017 06:00:00 3,7 1,8 2,8 2,5 4,7 5,9 19 10 25 14 W 1029,7 50 0 0,0
25.03.2017 05:00:00 4,0 0,5 2,8 2,7 4,9 5,9 16 9 26 14 W 1029,9 70 0 0,0
25.03.2017 04:00:00 4,3 1,2 2,8 3,1 5,0 5,9 14 7 21 11 WNW 1030,6 55 0 0,0
25.03.2017 03:00:00 4,0 1,8 3,1 3,1 5,2 5,9 11 6 15 8 W 1031,1 47 0 0,0
25.03.2017 02:00:00 3,7 1,5 1,8 3,2 5,3 5,9 8 4 15 8 W 1031,4 52 0 0,0
25.03.2017 01:00:00 4,4 1,3 3,3 3,2 5,5 5,9 11 6 16 8 W 1031,6 54 0 0,0
25.03.2017 00:00:00 3,7 0,8 1,7 3,2 5,8 5,9 9 5 16 8 W 1031,7 43 0 0,0
24.03.2017 23:00:00 2,9 0,5 0,4 3,2 6,1 5,9 9 5 11 6 W 1031,8 38 0 0,0
24.03.2017 22:00:00 2,5 -0,2 -0,6 3,5 6,5 5,9 7 4 9 5 WZW 1032,1 29 0 0,0
24.03.2017 21:00:00 1,9 -0,2 -1,6 4,1 6,9 5,9 7 4 9 5 W 1032,4 24 0 0,0
24.03.2017 20:00:00 3,2 0,5 0,4 5,1 7,2 5,9 6 3 10 5 WZW 1031,9 36 0 0,0
24.03.2017 19:00:00 4,2 0,7 0,7 6,3 7,5 5,9 6 4 11 6 W 1032,1 55 0 0,0
24.03.2017 18:00:00 6,3 0,6 4,9 7,8 7,6 5,9 9 5 19 10 W 1032,2 64 55 0,0
24.03.2017 17:00:00 7,7 1,2 8,6 9,5 7,4 5,9 11 6 20 11 W 1032,4 - 60 0,0
24.03.2017 16:00:00 8,5 0,7 10,7 10,6 7,0 5,9 14 7 23 12 W 1032,8 - 60 0,0
24.03.2017 15:00:00 8,8 -0,3 12,1 10,8 6,5 5,9 13 7 21 12 NW 1032,5 - 60 0,0
24.03.2017 14:00:00 8,2 -3,2 11,7 10,4 5,8 5,9 13 7 23 12 NNW 1032,5 - 60 0,0
24.03.2017 13:00:00 7,9 -1,6 11,7 10,7 5,0 5,9 10 5 21 11 NW 1032,3 - 60 0,0
24.03.2017 12:00:00 7,8 -2,4 11,6 9,5 4,2 5,9 11 6 18 10 NW 1032,4 - 60 0,0
24.03.2017 11:00:00 6,9 -2,3 10,1 7,2 3,6 5,9 11 6 20 11 NNW 1032,3 - 60 0,0
24.03.2017 10:00:00 6,2 -0,5 9,2 4,9 3,2 6,0 11 6 20 11 N 1032,3 - 60 0,0
24.03.2017 09:00:00 5,5 -0,4 7,1 2,5 3,1 6,0 10 5 20 11 NNW 1031,6 - 60 0,0
24.03.2017 08:00:00 3,2 1,2 4,0 0,5 3,2 6,0 3 2 8 4 W 1031,0 - 60 0,0
24.03.2017 07:00:00 -1,6 -2,1 -1,9 0,5 3,3 6,0 4 2 10 6 NNW 1030,3 - 34 0,0
24.03.2017 06:00:00 -2,3 -2,5 -4,8 0,5 3,5 6,0 7 4 11 6 NNW 1029,5 10 0 0,0
24.03.2017 05:00:00 -0,9 -1,3 -4,2 0,6 3,7 6,0 5 3 13 7 NNW 1028,6 9 0 0,0
24.03.2017 04:00:00 0,1 -0,5 -3,5 0,7 4,0 6,0 7 4 13 7 NNW 1028,0 22 0 0,0
24.03.2017 03:00:00 -0,1 -1,3 -3,5 0,7 4,3 6,0 8 5 13 7 NNW 1027,6 29 0 0,0
24.03.2017 02:00:00 1,5 0,5 -1,2 1,2 4,5 6,0 9 5 13 7 NNW 1027,2 23 0 0,0
24.03.2017 01:00:00 2,1 0,5 -0,8 1,6 4,8 6,0 12 6 14 8 N 1026,9 26 0 0,0
24.03.2017 00:00:00 2,3 -0,4 -0,8 2,5 5,1 6,0 8 4 16 9 NNW 1026,8 33 0 0,0
23.03.2017 23:00:00 2,8 0,4 0,0 3,2 5,3 6,0 4 2 13 7 NNO 1026,3 34 0 0,0
23.03.2017 22:00:00 5,0 1,5 2,3 4,0 5,4 6,0 8 4 15 8 N 1025,8 41 0 0,0
23.03.2017 21:00:00 5,1 2,1 3,7 4,8 5,5 6,0 8 4 10 5 N 1025,4 26 0 0,0
23.03.2017 20:00:00 5,7 0,7 3,8 5,1 5,6 5,9 6 3 9 5 N 1024,7 33 0 0,0
23.03.2017 19:00:00 6,3 0,9 4,4 5,5 5,7 5,9 5 3 10 5 NO 1024,2 37 0 0,0
23.03.2017 18:00:00 6,6 1,7 5,7 6,1 5,6 5,9 9 5 19 10 O 1023,5 34 0 0,0
23.03.2017 17:00:00 7,4 1,1 7,4 6,8 5,5 5,9 10 6 23 13 O 1023,1 25 0 0,0
23.03.2017 16:00:00 7,7 0,7 7,8 7,0 5,3 5,9 18 10 27 14 O 1022,8 - 0 0,0
23.03.2017 15:00:00 8,2 1,0 8,8 7,1 5,0 5,9 14 8 22 12 ONO 1022,8 - 0 0,0
23.03.2017 14:00:00 8,0 2,2 8,5 6,7 4,8 5,9 6 3 19 10 NO 1023,1 - 0 0,0
23.03.2017 13:00:00 7,8 1,8 7,8 6,3 4,5 5,9 14 8 27 15 ONO 1023,2 - 0 0,0
23.03.2017 12:00:00 7,7 1,0 8,4 6,6 4,0 5,9 13 7 20 11 ONO 1023,1 - 0 0,0
23.03.2017 11:00:00 7,0 1,9 8,0 5,7 3,7 5,9 14 8 19 11 O 1023,2 - 0 0,0
23.03.2017 10:00:00 5,9 2,0 6,6 3,7 3,5 5,9 13 7 18 10 O 1023,2 - 0 0,0
23.03.2017 09:00:00 4,2 1,3 3,8 1,5 3,5 5,9 11 6 19 10 O 1023,0 30 0 0,0
23.03.2017 08:00:00 4,0 1,0 2,8 0,8 3,6 5,9 15 8 20 11 O 1022,6 35 0 0,0
23.03.2017 07:00:00 2,5 0,1 0,6 0,6 3,8 5,9 16 8 18 10 ONO 1022,1 28 0 0,0
23.03.2017 06:00:00 0,6 -1,2 -3,5 0,6 4,0 5,9 2 1 12 7 ONO 1021,7 29 0 0,0
23.03.2017 05:00:00 0,9 -1,2 -3,6 0,6 4,2 5,9 10 6 16 9 O 1021,6 36 0 0,0
23.03.2017 04:00:00 1,0 0,0 -3,6 0,7 4,5 5,9 11 6 14 8 ONO 1021,4 33 0 0,0
23.03.2017 03:00:00 -3,0 -3,7 -4,3 0,8 4,8 5,9 6 3 8 4 ONO 1021,5 16 0 0,0
23.03.2017 02:00:00 -2,4 -2,5 -4,8 0,9 5,2 5,9 4 2 5 3 NO 1021,5 13 0 0,0
23.03.2017 01:00:00 -2,3 -3,1 -5,6 1,1 5,6 5,9 3 2 5 3 NNW 1021,4 16 0 0,0
23.03.2017 00:00:00 -0,7 -1,5 -4,8 1,5 6,0 5,9 3 2 4 2 N 1021,2 20 0 0,0
22.03.2017 23:00:00 -1,2 -1,9 -3,9 2,2 6,5 5,9 0 0 6 3 N 1021,2 16 0 0,0
22.03.2017 22:00:00 -0,9 -2,1 -3,4 3,0 7,0 5,9 4 2 7 4 O 1020,9 15 0 0,0
22.03.2017 21:00:00 1,5 -0,7 -1,8 4,1 7,5 5,9 6 3 10 6 O 1020,4 32 0 0,0
22.03.2017 20:00:00 5,0 1,1 -1,0 5,4 7,8 5,9 6 4 10 6 O 1019,9 38 0 0,0
22.03.2017 19:00:00 4,7 -0,2 0,3 7,1 8,1 5,9 3 2 6 3 ONO 1019,4 50 18 0,0
22.03.2017 18:00:00 9,4 -0,7 8,0 9,0 8,1 5,9 5 3 11 6 WNW 1018,9 70 60 0,0
22.03.2017 17:00:00 10,1 -0,3 10,9 10,0 7,9 5,9 11 6 18 10 WNW 1018,3 - 60 0,0
22.03.2017 16:00:00 10,7 -0,1 12,6 11,1 7,6 5,8 11 6 24 13 WNW 1018,1 - 60 0,0
22.03.2017 15:00:00 10,7 0,4 12,9 11,6 7,1 5,8 18 10 28 15 WNW 1018,0 - 58 0,0
22.03.2017 14:00:00 11,5 0,6 13,9 11,7 6,5 5,8 19 10 32 17 W 1017,8 - 60 0,0
22.03.2017 13:00:00 11,2 -0,1 13,3 11,1 5,8 5,8 23 12 36 20 WZW 1017,6 - 60 0,0
22.03.2017 12:00:00 10,6 0,4 13,0 10,4 5,0 5,8 23 12 35 19 W 1017,4 - 57 0,0
22.03.2017 11:00:00 9,5 1,2 12,2 8,8 4,3 5,8 18 10 31 17 WZW 1016,9 - 60 0,0
22.03.2017 10:00:00 7,6 1,2 10,0 6,4 3,8 5,8 18 10 32 17 ZW 1016,6 - 60 0,0
22.03.2017 09:00:00 5,5 0,3 7,1 3,9 3,6 5,8 19 10 30 16 ZW 1015,8 - 60 0,0
22.03.2017 08:00:00 3,2 -0,4 3,5 1,3 3,7 5,8 16 8 22 12 ZZW 1015,1 - 60 0,0
22.03.2017 07:00:00 1,0 -0,7 -0,3 0,6 3,9 5,8 6 3 18 10 ZZW 1014,7 35 22 0,0
22.03.2017 06:00:00 0,5 -1,4 -1,6 0,3 4,2 5,8 11 6 22 12 ZZW 1014,3 47 0 0,0
22.03.2017 05:00:00 2,3 -1,1 0,2 0,7 4,4 5,8 16 8 23 13 ZW 1013,8 57 0 0,0
22.03.2017 04:00:00 2,5 -0,8 0,6 1,0 4,7 5,8 16 9 24 13 ZW 1013,3 49 0 0,0
22.03.2017 03:00:00 2,3 -0,5 0,4 1,3 5,0 5,7 16 9 23 13 ZW 1012,9 45 0 0,0
22.03.2017 02:00:00 2,9 -0,2 0,9 1,7 5,3 5,7 16 9 26 14 ZW 1012,6 43 0 0,0
22.03.2017 01:00:00 4,0 0,5 2,1 2,1 5,6 5,7 20 11 29 16 WZW 1012,1 40 0 0,0
22.03.2017 00:00:00 4,0 0,2 2,4 2,5 5,9 5,7 22 12 34 19 WZW 1011,5 40 0 0,0
21.03.2017 23:00:00 4,3 0,2 2,8 2,9 6,3 5,7 22 12 35 19 WZW 1011,0 37 0 0,0
21.03.2017 22:00:00 4,6 0,5 3,2 3,5 6,6 5,7 27 15 38 20 W 1010,3 40 0 0,0
21.03.2017 21:00:00 5,0 0,6 3,7 3,9 7,0 5,7 25 14 39 21 W 1009,6 38 0 0,0
21.03.2017 20:00:00 5,2 0,8 3,9 4,6 7,3 5,7 23 12 37 20 W 1008,8 43 0 0,0
21.03.2017 19:00:00 5,9 1,5 4,7 5,5 7,7 5,7 23 12 39 21 W 1007,7 55 0 0,0
21.03.2017 18:00:00 6,5 2,4 5,4 6,6 7,9 5,7 25 13 44 24 W 1006,6 64 31 0,0
21.03.2017 17:00:00 7,9 2,9 7,6 7,7 8,1 5,7 28 15 39 21 W 1005,6 - 19 0,0
21.03.2017 16:00:00 6,7 2,3 5,7 8,3 8,2 5,7 33 18 64 35 W 1005,1 - 0 0,2
21.03.2017 15:00:00 6,6 4,7 6,3 9,0 8,1 5,7 27 14 58 31 W 1004,6 - 1 0,7
21.03.2017 14:00:00 11,7 3,3 13,0 11,3 7,9 5,7 24 13 46 25 ZW 1003,6 - 24 0,0
21.03.2017 13:00:00 11,3 2,8 12,4 11,7 7,4 5,6 27 15 44 24 ZW 1003,8 - 38 0,0
21.03.2017 12:00:00 11,0 2,6 12,8 12,1 6,8 5,6 22 12 36 19 ZW 1003,9 - 56 0,0
21.03.2017 11:00:00 10,2 2,9 12,9 10,0 6,4 5,6 21 11 40 22 WZW 1003,7 - 60 0,0
21.03.2017 10:00:00 9,3 4,0 10,9 8,4 6,2 5,6 24 13 37 20 WZW 1003,5 - 53 0,0
21.03.2017 09:00:00 7,7 4,8 7,9 7,0 6,2 5,6 22 12 35 19 WZW 1003,3 - 43 0,0
21.03.2017 08:00:00 7,1 5,2 7,2 5,5 6,3 5,6 20 11 28 15 ZW 1002,8 - 60 0,0
21.03.2017 07:00:00 5,9 4,6 4,7 4,5 6,5 5,6 14 8 22 12 ZW 1002,0 26 17 0,0
21.03.2017 06:00:00 5,7 4,5 3,9 4,9 6,8 5,6 14 7 22 12 ZW 1001,7 32 0 0,0
21.03.2017 05:00:00 6,5 4,7 4,9 5,8 7,0 5,6 16 9 37 20 WZW 1001,0 49 0 0,0
21.03.2017 04:00:00 7,1 5,4 6,4 6,7 7,1 5,6 22 12 39 21 W 1000,5 60 0 0,0
21.03.2017 03:00:00 7,6 5,6 7,0 7,0 7,2 5,6 26 14 48 26 W 1000,1 70 0 0,0
21.03.2017 02:00:00 8,1 5,6 7,4 7,6 7,3 5,6 31 17 50 27 W 999,5 70 0 0,0
21.03.2017 01:00:00 9,1 6,9 8,3 8,2 7,3 5,6 35 19 64 35 W 998,8 64 0 0,1
21.03.2017 00:00:00 10,9 7,8 9,8 8,7 7,3 5,6 40 21 58 31 WZW 997,8 33 0 0,0
20.03.2017 23:00:00 10,5 9,0 9,5 8,8 7,3 5,6 31 17 48 26 ZW 997,5 13 0 0,2
20.03.2017 22:00:00 10,2 9,5 9,5 8,8 7,3 5,6 24 13 36 19 ZW 998,5 13 0 1,1
20.03.2017 21:00:00 10,2 9,7 9,5 8,9 7,4 5,6 21 11 35 19 ZW 999,4 7 0 2,1
20.03.2017 20:00:00 10,3 9,6 9,6 9,0 7,3 5,6 25 13 34 19 ZZW 999,5 7 0 0,1
20.03.2017 19:00:00 10,5 9,6 9,8 9,1 7,2 5,6 19 10 27 15 ZZW 999,9 14 0 0,5
20.03.2017 18:00:00 10,7 9,7 9,8 9,3 7,2 5,6 18 10 29 16 ZW 1000,8 11 0 0,2
20.03.2017 17:00:00 10,5 10,1 10,1 9,5 7,1 5,6 15 8 21 11 ZZW 1001,1 19 0 0,9
20.03.2017 16:00:00 9,3 9,0 9,2 9,8 7,0 5,6 12 7 18 10 ZZO 1001,8 6 0 0,9
20.03.2017 15:00:00 9,5 8,4 9,2 10,1 6,7 5,6 11 6 18 10 ZZW 1002,7 13 0 1,3
20.03.2017 14:00:00 10,3 7,9 9,9 10,7 6,4 5,6 12 7 20 11 ZZW 1003,1 8 0 0,1
20.03.2017 13:00:00 10,5 7,4 11,6 10,9 5,9 5,7 11 6 18 10 ZW 1003,5 35 4 0,0
20.03.2017 12:00:00 9,3 7,5 10,4 10,0 5,5 5,7 12 6 21 12 W 1003,9 24 7 0,0
20.03.2017 11:00:00 8,6 6,9 9,7 8,6 5,2 5,7 13 7 22 12 WZW 1004,0 28 0 0,0
20.03.2017 10:00:00 7,2 5,9 8,1 7,6 5,0 5,7 10 5 23 12 ZW 1004,0 33 0 0,0
20.03.2017 09:00:00 6,7 5,6 6,9 6,4 4,9 5,7 16 9 29 16 W 1004,1 39 0 0,0
20.03.2017 08:00:00 6,1 5,7 6,0 5,8 4,8 5,7 16 8 29 15 W 1003,6 12 0 0,0
20.03.2017 07:00:00 6,0 5,7 5,7 5,5 4,8 5,7 18 10 40 22 W 1003,4 12 0 0,0
20.03.2017 06:00:00 6,2 5,7 5,7 5,6 4,7 5,7 25 13 40 22 W 1002,8 15 0 0,0
20.03.2017 05:00:00 6,6 6,3 6,2 5,7 4,6 5,7 26 14 43 23 W 1001,9 8 0 0,0
20.03.2017 04:00:00 6,8 6,4 6,3 5,8 4,5 5,7 27 15 42 23 W 1001,3 12 0 0,0
20.03.2017 03:00:00 6,9 6,6 6,5 5,8 4,4 5,7 29 16 50 27 W 1000,5 7 0 0,0
20.03.2017 02:00:00 7,5 6,9 7,0 5,9 4,2 5,7 35 19 54 29 W 1000,2 13 0 0,0
20.03.2017 01:00:00 7,5 7,1 7,0 5,7 4,0 5,7 31 17 49 26 W 999,3 13 0 0,1
20.03.2017 00:00:00 7,4 7,0 6,9 5,4 3,8 5,7 31 17 50 27 W 999,0 4,7 0 0,3

tt = temperatuur
td = dauwpunt
tt 5cm = temperatuur 5cm
tt -5cm = temperatuur -5cm
tt -20cm = temperatuur -20cm
tt -100cm = temperatuur -100cm
ff = windsnelheid
fx = windstoten
dd = windrichting
ppp = luchtdruk
vv = zicht
sd = Zonneschijnduur
rr = neerslag

Weerstations in de omgeving